Lakeport, New Hampshire
Current Conditions -  °F | °C
As of 3:15 AM on Saturday 25 Oct 2014 (Local Time) from KLCI Reporting Station
Broken Clouds Broken Clouds  
Wind Chill: 41°   Ceiling: 9000
Heat Index: 46°   Visibility: 10mi
Dew Point: 36°   Wind: 10mph
Humidity: 66%   Direction: 230°SW
Pressure: 29.71"   Gusts: NA
Location:  43.5478°N, 71.4074°W
Report Text: KLCI 250715Z AUTO 23009KT 10SM BKN090 08/02 A2971 RMK AO1
Loading
Personal Weather Stations






























Interactive Weather Map
Tropical Storm Tracking
New forecast layout! Learn more

10-Day Weather Forecast

Advertisements
Track Severe Weather on mobile